Regional Weather Roundup
Issued by NWS

Home | Current Version | Previous Version | Text Only | Print | Product List | Glossary On
Versions: 1 2 3 4 5 6 7 8 9 10 11 12 13 14 15 16 17 18 19 20 21 22 23 24 25 26 27 28 29 30 31 32 33 34 35 36 37 38 39 40 41 42 43 44 45 46 47 48 49 50
000
ASUS43 KDTX 111010
RWRMI
MICHIGAN HOURLY REGIONAL WEATHER ROUNDUP
NATIONAL WEATHER SERVICE DETROIT/PONTIAC MI
ISSUED BY NATIONAL WEATHER SERVICE GRAND RAPIDS MI
500 AM EST SUN DEC 11 2016

NOTE: "FAIR" INDICATES FEW OR NO CLOUDS BELOW 12,000 FEET WITH NO
SIGNIFICANT WEATHER AND/OR OBSTRUCTION TO VISIBILITY.

MIZ047>049-052>055-059>063-066>070-074>076-081>083-111100-
SOUTHEAST LOWER MICHIGAN

CITY           SKY/WX    TMP DP  RH WIND       PRES   REMARKS
ADRIAN         LGT SNOW  22  22 100 S7        30.32F FOG     WCI  13
ALMA           LGT SNOW  23  21  94 E5        30.27F WCI  16
ANN ARBOR      LGT SNOW  23  21  92 SE6       30.31F FOG     WCI  16
BAD AXE        CLOUDY    20  16  85 S3        30.33S
DETROIT CITY   LGT SNOW  24  22  91 S6        30.35F FOG     WCI  17
DETROIT        LGT SNOW  24  22  91 S5        30.35F FOG     WCI  18
FLINT          LGT SNOW  22  20  92 S7        30.30F FOG     WCI  13
GROSSE ILE     LGT SNOW  25  23  91 SW3       30.34S
HILLSDALE      LGT SNOW  21  21 100 SE7       30.26F WCI  13
HOWELL         LGT SNOW  22  20  90 SE7       30.28F WCI  14

CITY           SKY/WX    TMP DP  RH WIND       PRES   REMARKS
JACKSON        LGT SNOW  22  19  89 SE8       30.27F FOG     WCI  12
LANSING        LGT SNOW  22  18  85 S7        30.27F FOG     WCI  13
MASON          LGT SNOW  22  20  93 SE7       30.27F WCI  14
MONROE         LGT SNOW  25  24  96 S5        30.34S WCI  19
MT. CLEMENS    CLOUDY    23  21  93 S5        30.33R WCI  17
PONTIAC        LGT SNOW  22  19  89 S5        30.30S FOG     WCI  16
PORT HOPE        N/A     21  14  74 SW3       30.32F
PORT HURON     LGT SNOW  23  21  93 CALM      30.35S
TRI CITIES     LGT SNOW  22  21  96 SE6       30.31F FOG     WCI  14
YPSILANTI      LGT SNOW  24  22  91 S8        30.33F FOG     WCI  15
$$
MIZ043>046-050>051-056>058-064>065-071>073-077>080-111100-
SOUTHWEST LOWER MICHIGAN

CITY           SKY/WX    TMP DP  RH WIND       PRES   REMARKS
BATTLE CREEK   LGT SNOW  23  20  88 SE8       30.24F FOG     WCI  14
BENTON HARBOR  LGT SNOW  24  21  88 SE8       30.22F FOG     WCI  15
BIG RAPIDS     LGT SNOW  21  19  91 SE5       30.21F VSB 1   WCI  14
COLDWATER      LGT SNOW  24  22  93 SE6       30.26F WCI  17
HOLLAND        LGT SNOW  23  20  88 SE12      30.22F FOG     WCI  12
GRAND RAPIDS   LGT SNOW  22  19  89 SE9       30.24F FOG     WCI  12
KALAMAZOO      LGT SNOW  24  19  81 SE6       30.23F WCI  17
MARSHALL       LGT SNOW  23  20  91 SE6       30.26F WCI  15
MOUNT PLEASANT LGT SNOW  22  20  93 E5        30.26F WCI  15
MUSKEGON       CLOUDY    24  21  88 SE14      30.21F WCI  12
STURGIS        LGT SNOW  23  21  93 SE7       30.24F WCI  15
$$
MIZ016>042-111100-
NORTHERN LOWER MICHIGAN

CITY           SKY/WX    TMP DP  RH WIND       PRES   REMARKS
ALPENA         PTCLDY    16  10  77 S5        30.29F WCI   9
BEAVER ISLAND  LGT SNOW  19  19 100 CALM      30.23F
BELLAIRE       CLOUDY    19  16  88 S6        30.27F FOG     WCI  10
CADILLAC       LGT SNOW  17  15  88 E5        30.19F WCI  10
CHARLEVOIX     CLOUDY    20  16  84 S9        30.27F WCI   9
GAYLORD        CLOUDY    15  10  80 S6        30.21F WCI   6
HOUGHTON LAKE  LGT SNOW  17  14  88 SE5       30.24F FOG     WCI  10
MANISTEE       LGT SNOW  20  17  88 E7        30.22F FOG     WCI  11
OSCODA         CLOUDY    19  14  78 MISG      30.30F
PELLSTON       CLOUDY    17  12  80 NE3       30.25S
TRAVERSE CITY  LGT SNOW  20  16  84 SE5       30.25F FOG     WCI  13
LUDINGTON      LGT SNOW  20  19  95 E8        30.20F WCI  11
$$
MIZ007>008-015-111100-
EASTERN UPPER MICHIGAN

CITY           SKY/WX    TMP DP  RH WIND       PRES   REMARKS
KINROSS        CLOUDY    13  11  92 CALM      30.25F
MACKINAC ISLAN CLOUDY    20  17  85 S3        30.23F
NEWBERRY       CLOUDY    12   7  78 CALM      30.21F
S. S. MARIE    CLOUDY    13   9  84 CALM      30.24F
$$
MIZ004>006-011>014-085-111100-
CENTRAL UPPER MICHIGAN

CITY           SKY/WX    TMP DP  RH WIND       PRES   REMARKS
MANISTIQUE     MOCLDY    10   5  79 CALM      30.23F
ESCANABA       FLURRIES  13   8  81 N3        30.24F
MENOMINEE      LGT SNOW  14  11  87 N3        30.22F FOG
SAWYER-GWINN   CLOUDY     5   1  85 CALM      30.18F
$$
MIZ001>003-009>011-084-111100-
WESTERN UPPER MICHIGAN

CITY           SKY/WX    TMP DP  RH WIND       PRES   REMARKS
IRON MOUNTAIN  CLOUDY    11   4  73 CALM      30.17F
HOUGHTON       MOCLDY     7  -2  66 NW6       30.18S WCI  -3
COPPER HARBOR    N/A     14   6  70 W5        30.21F WCI   6
IRONWOOD       CLOUDY     1  -2  87 E6        30.15F WCI -10
$$

ABBREVIATIONS USED IN REMARKS
   TC - TEMPERATURE IN CELSIUS
  WCI - WIND CHILL INDEX
   HX - HEAT INDEX
  VSB - VISIBILITY





USA.gov is the U.S. government's official web portal to all federal, state and local government web resources and services.